Time,TemperatureF,DewpointF,PressureIn,WindDirection,WindDirectionDegrees,WindSpeedMPH,WindSpeedGustMPH,Humidity,HourlyPrecipIn,Conditions,Clouds,dailyrainin,SolarRadiationWatts/m^2,SoftwareType,DateUTC
2013-04-09 00:02:00,70.0,67.0,-100.00,SSE,151,11.0,23.0,91,0.00,,,0.00,0.000000,,2013-04-09 05:02:00,
2013-04-09 00:32:00,70.0,67.0,-100.00,SSE,148,12.0,19.0,91,0.00,,,0.00,0.000000,,2013-04-09 05:32:00,
2013-04-09 00:43:00,70.0,67.0,-100.00,SSE,148,12.0,19.0,91,0.00,,,0.00,0.000000,,2013-04-09 05:43:00,
2013-04-09 00:52:00,70.0,67.0,-100.00,SSE,148,12.0,19.0,91,0.00,,,0.00,0.000000,,2013-04-09 05:52:00,
2013-04-09 01:02:00,70.0,67.0,-100.00,SSE,148,12.0,19.0,91,0.00,,,0.00,0.000000,,2013-04-09 06:02:00,
2013-04-09 01:32:00,70.0,68.0,-100.00,SSE,148,11.0,20.0,92,0.00,,,0.00,0.000000,,2013-04-09 06:32:00,
2013-04-09 01:42:00,70.0,68.0,-100.00,SSE,148,11.0,20.0,92,0.00,,,0.00,0.000000,,2013-04-09 06:42:00,
2013-04-09 01:52:00,70.0,68.0,-100.00,SSE,148,11.0,20.0,92,0.00,,,0.00,0.000000,,2013-04-09 06:52:00,
2013-04-09 02:02:00,70.0,68.0,-100.00,SSE,148,11.0,20.0,92,0.00,,,0.00,0.000000,,2013-04-09 07:02:00,
2013-04-09 02:32:00,70.0,68.0,-100.00,SSE,147,11.0,21.0,95,0.00,,,-99.99,0.000000,,2013-04-09 07:32:00,
2013-04-09 02:42:00,70.0,68.0,-100.00,SSE,147,11.0,21.0,95,0.00,,,-99.99,0.000000,,2013-04-09 07:42:00,
2013-04-09 02:52:00,70.0,68.0,-100.00,SSE,147,11.0,21.0,95,0.00,,,-99.99,0.000000,,2013-04-09 07:52:00,
2013-04-09 03:03:00,70.0,68.0,-100.00,SSE,147,11.0,21.0,95,0.00,,,-99.99,0.000000,,2013-04-09 08:03:00,
2013-04-09 03:32:00,69.0,69.0,-100.00,SE,139,9.0,18.0,99,0.00,,,0.00,0.000000,,2013-04-09 08:32:00,
2013-04-09 03:42:00,69.0,69.0,-100.00,SE,139,9.0,18.0,99,0.00,,,0.00,0.000000,,2013-04-09 08:42:00,
2013-04-09 03:52:00,69.0,69.0,-100.00,SE,139,9.0,18.0,99,0.00,,,0.00,0.000000,,2013-04-09 08:52:00,
2013-04-09 04:02:00,69.0,69.0,-100.00,SE,139,9.0,18.0,99,0.00,,,0.00,0.000000,,2013-04-09 09:02:00,
2013-04-09 04:44:00,70.0,70.0,-100.00,SE,142,10.0,13.0,100,0.00,,,0.00,0.000000,,2013-04-09 09:44:00,
2013-04-09 04:53:00,70.0,70.0,-100.00,SE,142,10.0,13.0,100,0.00,,,0.00,0.000000,,2013-04-09 09:53:00,
2013-04-09 05:03:00,70.0,70.0,-100.00,SE,142,10.0,13.0,100,0.00,,,0.00,0.000000,,2013-04-09 10:03:00,
2013-04-09 05:33:00,71.0,69.0,-100.00,SSE,154,11.0,18.0,95,0.00,,,0.00,0.000000,,2013-04-09 10:33:00,
2013-04-09 05:43:00,71.0,69.0,-100.00,SSE,154,11.0,18.0,95,0.00,,,0.00,0.000000,,2013-04-09 10:43:00,
2013-04-09 05:53:00,71.0,69.0,-100.00,SSE,154,11.0,18.0,95,0.00,,,0.00,0.000000,,2013-04-09 10:53:00,
2013-04-09 06:02:00,71.0,69.0,-100.00,SSE,154,11.0,18.0,95,0.00,,,0.00,0.000000,,2013-04-09 11:02:00,
2013-04-09 06:32:00,70.0,68.0,-100.00,SSE,152,10.0,18.0,95,0.00,,,0.00,0.000000,,2013-04-09 11:32:00,
2013-04-09 06:42:00,70.0,68.0,-100.00,SSE,152,10.0,18.0,95,0.00,,,0.00,0.000000,,2013-04-09 11:42:00,
2013-04-09 06:52:00,70.0,68.0,-100.00,SSE,152,10.0,18.0,95,0.00,,,0.00,0.000000,,2013-04-09 11:52:00,
2013-04-09 07:02:00,70.0,68.0,-100.00,SSE,152,10.0,18.0,95,0.00,,,0.00,0.000000,,2013-04-09 12:02:00,
2013-04-09 07:33:00,71.0,70.0,-100.00,SSE,152,10.0,20.0,96,0.00,,,0.00,1.000000,,2013-04-09 12:33:00,
2013-04-09 07:43:00,71.0,70.0,-100.00,SSE,152,10.0,20.0,96,0.00,,,0.00,1.000000,,2013-04-09 12:43:00,
2013-04-09 07:53:00,71.0,70.0,-100.00,SSE,152,10.0,20.0,96,0.00,,,0.00,1.000000,,2013-04-09 12:53:00,
2013-04-09 08:02:00,71.0,70.0,-100.00,SSE,152,10.0,20.0,96,0.00,,,0.00,1.000000,,2013-04-09 13:02:00,
2013-04-09 08:33:00,71.0,70.0,-100.00,SSE,153,11.0,18.0,96,0.00,,,0.00,24.000000,,2013-04-09 13:33:00,
2013-04-09 08:43:00,71.0,70.0,-100.00,SSE,153,11.0,18.0,96,0.00,,,0.00,24.000000,,2013-04-09 13:43:00,
2013-04-09 08:53:00,71.0,70.0,-100.00,SSE,153,11.0,18.0,96,0.00,,,0.00,24.000000,,2013-04-09 13:53:00,
2013-04-09 09:03:00,71.0,70.0,-100.00,SSE,153,11.0,18.0,96,0.00,,,0.00,24.000000,,2013-04-09 14:03:00,
2013-04-09 09:33:00,72.0,70.0,-100.00,SSE,148,10.0,18.0,95,0.00,,,0.00,46.000000,,2013-04-09 14:33:00,
2013-04-09 09:43:00,72.0,70.0,-100.00,SSE,148,10.0,18.0,95,0.00,,,0.00,46.000000,,2013-04-09 14:43:00,
2013-04-09 09:52:00,72.0,70.0,-100.00,SSE,148,10.0,18.0,95,0.00,,,0.00,46.000000,,2013-04-09 14:52:00,
2013-04-09 10:02:00,72.0,70.0,-100.00,SSE,148,10.0,18.0,95,0.00,,,0.00,46.000000,,2013-04-09 15:02:00,
2013-04-09 10:34:00,74.0,71.0,-100.00,SSE,152,10.0,18.0,91,0.00,,,0.00,86.000000,,2013-04-09 15:34:00,
2013-04-09 10:44:00,74.0,71.0,-100.00,SSE,152,10.0,18.0,91,0.00,,,0.00,86.000000,,2013-04-09 15:44:00,
2013-04-09 11:03:00,74.0,71.0,-100.00,SSE,152,10.0,18.0,91,0.00,,,0.00,86.000000,,2013-04-09 16:03:00,
2013-04-09 11:34:00,77.0,70.0,-100.00,SSE,157,14.0,21.0,78,0.00,,,0.00,302.000000,,2013-04-09 16:34:00,
2013-04-09 11:43:00,77.0,70.0,-100.00,SSE,157,14.0,21.0,78,0.00,,,0.00,302.000000,,2013-04-09 16:43:00,
2013-04-09 11:54:00,77.0,70.0,-100.00,SSE,157,14.0,21.0,78,0.00,,,0.00,302.000000,,2013-04-09 16:54:00,
2013-04-09 12:02:00,77.0,70.0,-100.00,SSE,157,14.0,21.0,78,0.00,,,0.00,302.000000,,2013-04-09 17:02:00,
2013-04-09 12:33:00,78.0,70.0,-100.00,SSE,155,13.0,23.0,76,0.00,,,0.00,351.000000,,2013-04-09 17:33:00,
2013-04-09 12:43:00,78.0,70.0,-100.00,SSE,155,13.0,23.0,76,0.00,,,0.00,351.000000,,2013-04-09 17:43:00,
2013-04-09 12:54:00,78.0,70.0,-100.00,SSE,155,13.0,23.0,76,0.00,,,0.00,351.000000,,2013-04-09 17:54:00,
2013-04-09 13:02:00,78.0,70.0,-100.00,SSE,155,13.0,23.0,76,0.00,,,0.00,351.000000,,2013-04-09 18:02:00,
2013-04-09 13:33:00,81.0,70.0,-100.00,SSE,162,10.0,26.0,69,0.00,,,0.00,417.000000,,2013-04-09 18:33:00,
2013-04-09 13:43:00,81.0,70.0,-100.00,SSE,162,10.0,26.0,69,0.00,,,0.00,417.000000,,2013-04-09 18:43:00,
2013-04-09 13:53:00,81.0,70.0,-100.00,SSE,162,10.0,26.0,69,0.00,,,0.00,417.000000,,2013-04-09 18:53:00,
2013-04-09 14:03:00,81.0,70.0,-100.00,SSE,162,10.0,26.0,69,0.00,,,0.00,417.000000,,2013-04-09 19:03:00,
2013-04-09 14:53:00,82.0,68.0,-100.00,SSE,159,16.0,28.0,63,0.00,,,0.00,554.000000,,2013-04-09 19:53:00,
2013-04-09 15:02:00,82.0,68.0,-100.00,SSE,159,16.0,28.0,63,0.00,,,0.00,554.000000,,2013-04-09 20:02:00,
2013-04-09 15:34:00,82.0,68.0,-100.00,SSE,148,14.0,25.0,63,0.00,,,0.00,549.000000,,2013-04-09 20:34:00,
2013-04-09 15:44:00,82.0,68.0,-100.00,SSE,148,14.0,25.0,63,0.00,,,0.00,549.000000,,2013-04-09 20:44:00,
2013-04-09 15:53:00,82.0,68.0,-100.00,SSE,148,14.0,25.0,63,0.00,,,0.00,549.000000,,2013-04-09 20:53:00,
2013-04-09 16:02:00,82.0,68.0,-100.00,SSE,148,14.0,25.0,63,0.00,,,0.00,549.000000,,2013-04-09 21:02:00,
2013-04-09 16:33:00,83.0,67.0,-100.00,SSE,167,13.0,26.0,59,0.00,,,0.00,458.000000,,2013-04-09 21:33:00,
2013-04-09 16:42:00,83.0,67.0,-100.00,SSE,167,13.0,26.0,59,0.00,,,0.00,458.000000,,2013-04-09 21:42:00,
2013-04-09 16:53:00,83.0,67.0,-100.00,SSE,167,13.0,26.0,59,0.00,,,0.00,458.000000,,2013-04-09 21:53:00,
2013-04-09 17:03:00,83.0,67.0,-100.00,SSE,167,13.0,26.0,59,0.00,,,0.00,458.000000,,2013-04-09 22:03:00,
2013-04-09 17:33:00,83.0,68.0,-100.00,SSE,153,16.0,29.0,60,0.00,,,0.00,439.000000,,2013-04-09 22:33:00,
2013-04-09 17:43:00,83.0,68.0,-100.00,SSE,153,16.0,29.0,60,0.00,,,0.00,439.000000,,2013-04-09 22:43:00,
2013-04-09 17:53:00,83.0,68.0,-100.00,SSE,153,16.0,29.0,60,0.00,,,0.00,439.000000,,2013-04-09 22:53:00,
2013-04-09 18:03:00,83.0,68.0,-100.00,SSE,153,16.0,29.0,60,0.00,,,0.00,439.000000,,2013-04-09 23:03:00,
2013-04-09 18:33:00,78.0,69.0,-100.00,SSE,150,16.0,26.0,73,0.00,,,0.00,302.000000,,2013-04-09 23:33:00,
2013-04-09 18:43:00,78.0,69.0,-100.00,SSE,150,16.0,26.0,73,0.00,,,0.00,302.000000,,2013-04-09 23:43:00,
2013-04-09 18:53:00,78.0,69.0,-100.00,SSE,150,16.0,26.0,73,0.00,,,0.00,302.000000,,2013-04-09 23:53:00,
2013-04-09 19:03:00,78.0,69.0,-100.00,SSE,150,16.0,26.0,73,0.00,,,0.00,302.000000,,2013-04-10 00:03:00,
2013-04-09 19:33:00,76.0,70.0,-100.00,SSE,148,13.0,21.0,81,0.00,,,-99.99,48.000000,,2013-04-10 00:33:00,
2013-04-09 19:43:00,76.0,70.0,-100.00,SSE,148,13.0,21.0,81,0.00,,,-99.99,48.000000,,2013-04-10 00:43:00,
2013-04-09 19:53:00,76.0,70.0,-100.00,SSE,148,13.0,21.0,81,0.00,,,-99.99,48.000000,,2013-04-10 00:53:00,
2013-04-09 20:02:00,76.0,70.0,-100.00,SSE,148,13.0,21.0,81,0.00,,,-99.99,48.000000,,2013-04-10 01:02:00,
2013-04-09 20:33:00,74.0,71.0,-100.00,ESE,123,15.0,21.0,89,0.00,,,0.00,1.000000,,2013-04-10 01:33:00,
2013-04-09 20:43:00,74.0,71.0,-100.00,ESE,123,15.0,21.0,89,0.00,,,0.00,1.000000,,2013-04-10 01:43:00,
2013-04-09 20:53:00,74.0,71.0,-100.00,ESE,123,15.0,21.0,89,0.00,,,0.00,1.000000,,2013-04-10 01:53:00,
2013-04-09 21:02:00,74.0,71.0,-100.00,ESE,123,15.0,21.0,89,0.00,,,0.00,1.000000,,2013-04-10 02:02:00,
2013-04-09 21:33:00,73.0,71.0,-100.00,SE,132,15.0,25.0,94,0.00,,,0.00,0.000000,,2013-04-10 02:33:00,
2013-04-09 21:43:00,73.0,71.0,-100.00,SE,132,15.0,25.0,94,0.00,,,0.00,0.000000,,2013-04-10 02:43:00,
2013-04-09 21:53:00,73.0,71.0,-100.00,SE,132,15.0,25.0,94,0.00,,,0.00,0.000000,,2013-04-10 02:53:00,
2013-04-09 22:03:00,73.0,71.0,-100.00,SE,132,15.0,25.0,94,0.00,,,0.00,0.000000,,2013-04-10 03:03:00,
2013-04-09 22:33:00,73.0,71.0,-100.00,SE,134,21.0,30.0,93,0.00,,,0.00,0.000000,,2013-04-10 03:33:00,
2013-04-09 22:43:00,73.0,71.0,-100.00,SE,134,21.0,30.0,93,0.00,,,0.00,0.000000,,2013-04-10 03:43:00,
2013-04-09 22:53:00,73.0,71.0,-100.00,SE,134,21.0,30.0,93,0.00,,,0.00,0.000000,,2013-04-10 03:53:00,
2013-04-09 23:03:00,73.0,71.0,-100.00,SE,134,21.0,30.0,93,0.00,,,0.00,0.000000,,2013-04-10 04:03:00,
2013-04-09 23:33:00,73.0,71.0,-100.00,SSE,147,14.0,31.0,92,0.00,,,0.00,0.000000,,2013-04-10 04:33:00,
2013-04-09 23:43:00,73.0,71.0,-100.00,SSE,147,14.0,31.0,92,0.00,,,0.00,0.000000,,2013-04-10 04:43:00,
2013-04-09 23:53:00,73.0,71.0,-100.00,SSE,147,14.0,31.0,92,0.00,,,0.00,0.000000,,2013-04-10 04:53:00,